Bournemouth, United Kingdom

6:05 PM BST on August 24, 2016 (GMT +0100)
Bournemouth

Weather History for EGHH - March, 2013

Change the Weather History Date:

Sunday, March 10, 2013

  Actual Average Record
Temperature  
Mean Temperature 36 °F -  
Max Temperature 40 °F 52 °F 59 °F (2012)
Min Temperature 33 °F 37 °F 23 °F (1999)
Degree Days  
Heating Degree Days 28    
Moisture  
Dew Point 32 °F    
Average Humidity 78    
Maximum Humidity 87    
Minimum Humidity 65    
Precipitation  
Precipitation 0.01 in 0.08 in - ()
Sea Level Pressure  
Sea Level Pressure 29.66 in    
Wind  
Wind Speed 12 mph ()    
Max Wind Speed 17 mph    
Max Gust Speed -    
Visibility 7.5 miles    
Events Rain , Snow    
Averages and records for this station are not official NWS values.
T = Trace of Precipitation, MM = Missing Value Source: Averaged Metar Reports

Daily Weather History Graph

Daily Weather History Graph

Search for Another Location

Airport or City:

Trip Planner

Search our weather history database for the weather conditions in past years. The results will help you decide how hot, cold, wet, or windy it might be!

Date:

Astronomy

Mar. 10, 2013 Rise Set
Actual Time 6:32 AM GMT 6:03 PM GMT
Civil Twilight 5:59 AM GMT 6:36 PM GMT
Nautical Twilight 5:21 AM GMT 7:14 PM GMT
Astronomical Twilight 4:42 AM GMT 7:53 PM GMT
Moon 5:29 AM GMT (3/10) 4:53 PM GMT (3/10)
Length of Visible Light 12h 37m
Length of Day
11h 31m
Waning Crescent, 2% of the Moon is Illuminated
Mar 10
Waning Crescent
Mar 11
New
Mar 19
First Quarter
Mar 27
Full
Apr 3
Last Quarter

Hourly Weather History & Observations

Time (GMT) Temp. Windchill Dew Point Humidity Pressure Visibility Wind Dir Wind Speed Gust Speed Precip Events Conditions
2:50 AM 39 °F - 35 °F 82% 29.65 in 11 mi NE 8.1 mph - -   Overcast
5:20 AM 37.4 °F 30.3 °F 33.8 °F 87% 29.62 in 6.2 mi NE 10.4 mph - N/A   Overcast
5:50 AM 37 °F - 33 °F 79% 29.65 in 17 mi NE 11.5 mph - -   Unknown Precipitation
5:50 AM 37.4 °F 29.8 °F 32.0 °F 81% 29.62 in 6.2 mi NE 11.5 mph - N/A   Mostly Cloudy
6:20 AM 37.4 °F 30.8 °F 32.0 °F 81% 29.65 in 6.2 mi ENE 9.2 mph - N/A   Mostly Cloudy
6:50 AM 37.4 °F 29.3 °F 32.0 °F 81% 29.65 in 6.2 mi NE 12.7 mph - N/A   Mostly Cloudy
7:20 AM 37.4 °F 29.8 °F 32.0 °F 81% 29.65 in 6.2 mi NE 11.5 mph - N/A   Overcast
7:50 AM 37.4 °F 30.3 °F 32.0 °F 81% 29.65 in 6.2 mi NE 10.4 mph - N/A   Mostly Cloudy
8:20 AM 39.2 °F 31.2 °F 33.8 °F 81% 29.65 in 6.2 mi ENE 13.8 mph - N/A   Mostly Cloudy
8:50 AM 38 °F - 33 °F 74% 29.66 in 19 mi ENE 13.8 mph - -   Overcast
8:50 AM 39.2 °F 31.6 °F 32.0 °F 75% 29.65 in 6.2 mi ENE 12.7 mph - N/A   Overcast
9:20 AM 39.2 °F 31.6 °F 32.0 °F 75% 29.65 in 6.2 mi ENE 12.7 mph - N/A   Mostly Cloudy
9:50 AM 39.2 °F 30.8 °F 32.0 °F 75% 29.65 in 6.2 mi ENE 15.0 mph - N/A   Overcast
10:20 AM 39.2 °F 31.6 °F 33.8 °F 81% 29.65 in 6.2 mi ENE 12.7 mph - N/A   Overcast
10:50 AM 39.2 °F 31.2 °F 32.0 °F 75% 29.65 in 6.2 mi ENE 13.8 mph - N/A   Mostly Cloudy
11:20 AM 39.2 °F 30.5 °F 32.0 °F 75% 29.65 in 6.2 mi ENE 16.1 mph - N/A   Mostly Cloudy
11:50 AM 40 °F - 32 °F 65% 29.67 in 17 mi ENE 13.8 mph - -   Mostly Cloudy
11:50 AM 39.2 °F 31.6 °F 32.0 °F 75% 29.65 in 6.2 mi ENE 12.7 mph - N/A   Overcast
12:20 PM 41.0 °F 33.5 °F 32.0 °F 70% 29.65 in 6.2 mi ENE 13.8 mph - N/A   Mostly Cloudy
12:50 PM 41.0 °F 34.3 °F 33.8 °F 76% 29.65 in 6.2 mi ENE 11.5 mph - N/A   Mostly Cloudy
1:20 PM 41.0 °F 33.1 °F 32.0 °F 70% 29.65 in 6.2 mi ENE 15.0 mph - N/A   Mostly Cloudy
1:50 PM 41.0 °F 33.1 °F 32.0 °F 70% 29.65 in 6.2 mi ENE 15.0 mph - N/A   Overcast
2:20 PM 41.0 °F 32.8 °F 32.0 °F 70% 29.65 in 6.2 mi ENE 16.1 mph - N/A   Overcast
2:50 PM 40 °F - 33 °F 67% 29.66 in 17 mi ENE 12.7 mph - - Rain Light Rain Showers
2:50 PM 41.0 °F 34.3 °F 32.0 °F 70% 29.65 in 6.2 mi ENE 11.5 mph - N/A   Mostly Cloudy
3:20 PM 39.2 °F 30.5 °F 33.8 °F 81% 29.65 in 6.2 mi ENE 16.1 mph - N/A Rain Light Rain
3:50 PM 39.2 °F 30.5 °F 32.0 °F 75% 29.65 in 6.2 mi ENE 16.1 mph - N/A Rain Light Rain
4:20 PM 39.2 °F 30.5 °F 32.0 °F 75% 29.65 in 6.2 mi ENE 16.1 mph - N/A Rain Light Rain
4:50 PM 37.4 °F 27.8 °F 32.0 °F 81% 29.65 in 6.2 mi ENE 17.3 mph - N/A Rain Light Rain
5:20 PM 37.4 °F 28.2 °F 32.0 °F 81% 29.65 in 6.2 mi ENE 16.1 mph - N/A Rain Light Rain
5:50 PM 36 °F - 32 °F 81% 29.68 in 12 mi NE 13.8 mph - - Rain Light Rain
5:50 PM 35.6 °F 25.9 °F 32.0 °F 87% 29.65 in 6.2 mi NE 16.1 mph - N/A Rain Light Rain
6:20 PM 35.6 °F 26.2 °F 32.0 °F 87% 29.68 in 6.2 mi NE 15.0 mph - N/A Rain Light Rain
6:50 PM 35.6 °F 26.2 °F 32.0 °F 87% 29.68 in 4.3 mi NE 15.0 mph - N/A Rain Light Rain
7:20 PM 35.6 °F 26.6 °F 32.0 °F 87% 29.68 in 6.2 mi ENE 13.8 mph - N/A Rain Light Rain
7:50 PM 35.6 °F 27.1 °F 32.0 °F 87% 29.68 in 6.2 mi ENE 12.7 mph - N/A Rain Light Rain
8:20 PM 35.6 °F 26.6 °F 30.2 °F 81% 29.68 in 6.2 mi ENE 13.8 mph - N/A   Mostly Cloudy
8:50 PM 35 °F - 30 °F 76% 29.70 in 6 mi NE 13.8 mph - - Rain Light Rain
8:50 PM 35.6 °F 26.6 °F 30.2 °F 81% 29.68 in 6.2 mi NE 13.8 mph - N/A   Mostly Cloudy
9:50 PM 33.8 °F 23.9 °F 30.2 °F 87% 29.68 in 4.3 mi NE 15.0 mph - N/A Snow Snow
10:20 PM 33.8 °F 23.2 °F 28.4 °F 81% 29.68 in 6.2 mi NE 17.3 mph - N/A   Mostly Cloudy
11:50 PM 34 °F - 28 °F 69% 29.69 in 25 mi NE 13.8 mph - -   Scattered Clouds